[[{"header":{"parameterUnit":"m.s-1","parameterCategory":1,"la1":30.2991,"la2":30.254,"lo1":-89.0895,"lo2":-89.0444,"dy":0.0017,"dx":0.0017,"nx":28,"ny":28,"refTime":"2025-08-04T09:00:00:Z","depth":0,"parameterNumber":2,"parameterNumberName":"U-component_of_WINDS"},"data":[0,0,0,0,0,0,0,0,0,0,0,0,0,0,0,0,0,0,0,0,0,0,0,0,0,0,0,0,0,0,0,0,0,0,0,0,0,0,0,0,0,0,0,0,0,0,0,0,0,0,0,0,0,0,0,0,0,0,-2.4501,-2.4501,0,-2.4544,-2.4545,-2.4545,-2.4509,-2.4507,-2.4505,-2.4504,-2.4551,-2.4553,-2.4556,0,0,0,0,0,0,0,0,0,0,0,0,0,-2.4386,-2.4388,-2.45,-2.4501,-2.4502,-2.4544,-2.4545,-2.4546,-2.4509,-2.4507,-2.4505,-2.4503,-2.455,-2.4553,-2.4556,0,0,0,0,0,0,0,0,0,0,0,0,0,-2.4433,-2.4389,-2.45,-2.4488,-2.4488,-2.4544,-2.4545,-2.4546,-2.4509,-2.4507,-2.4505,-2.4502,-2.4549,-2.4553,-2.4557,-2.4628,0,0,-2.4569,-2.4571,0,0,0,0,0,0,0,0,-2.443,-2.4437,-2.449,-2.4489,-2.4489,-2.4519,-2.4521,-2.4573,-2.451,-2.4501,-2.4504,-2.4501,-2.4542,-2.4546,-2.456,-2.463,-2.4632,-2.4569,-2.4572,-2.4573,-2.4574,0,0,0,0,0,0,0,-2.4427,-2.4435,-2.4518,-2.449,-2.449,-2.4481,-2.4485,-2.4531,-2.4534,-2.4502,-2.4499,-2.4505,-2.4541,-2.4556,-2.4561,-2.4633,-2.4569,-2.4573,-2.4575,-2.4577,-2.4761,-2.4763,0,0,0,0,0,0,-2.4425,-2.4433,-2.4516,-2.4519,-2.4453,-2.4485,-2.449,-2.4511,-2.4533,-2.4535,-2.4507,-2.4503,-2.455,-2.4556,-2.4562,-2.4645,-2.4573,-2.4577,-2.4579,-2.4758,-2.4761,-2.4764,0,0,0,0,0,0,-2.4423,-2.4433,-2.4515,-2.4475,-2.4485,-2.4489,-2.4514,-2.4513,-2.4528,-2.4537,-2.4538,-2.4521,-2.4549,-2.4556,-2.4611,-2.4646,-2.4579,-2.4583,-2.4755,-2.4759,-2.4763,-2.4812,0,0,0,0,0,0,-2.442,-2.4432,-2.4459,-2.4476,-2.4487,-2.4563,-2.4516,-2.4516,-2.4535,-2.453,-2.4551,-2.4552,-2.4547,-2.4605,-2.4615,-2.465,-2.4586,-2.4752,-2.4757,-2.4761,-2.4807,-2.4817,-2.4825,0,0,0,0,0,-2.4416,-2.4472,-2.4461,-2.4471,-2.4521,-2.4565,-2.4571,-2.4565,-2.4538,-2.4565,-2.457,-2.4551,-2.4641,-2.4611,-2.4622,-2.4659,-2.475,-2.4756,-2.4761,-2.4803,-2.4815,-2.4825,0,0,0,0,0,0,-2.4461,-2.4474,-2.4462,-2.4526,-2.4544,-2.4559,-2.4593,-2.4578,-2.4605,-2.4599,-2.459,-2.4595,-2.4652,-2.4661,-2.4628,-2.4728,-2.4691,-2.4699,-2.4719,-2.4731,-2.474,-2.4736,-2.4589,0,0,0,0,0,-2.4478,-2.4512,-2.4522,-2.4578,-2.4588,-2.4589,-2.4608,-2.4601,-2.462,-2.4628,-2.4637,-2.4657,-2.4689,-2.4711,-2.4741,-2.4809,-2.4812,-2.4839,-2.4848,-2.4856,-2.4862,-2.4897,-2.4908,-2.4782,-2.4782,-2.4782,0,0,-2.4514,-2.4526,-2.4548,-2.4587,-2.4601,-2.4636,-2.4596,-2.4635,-2.4661,-2.4634,-2.4685,-2.4693,-2.4714,-2.4775,-2.4802,-2.4784,-2.4898,-2.4863,-2.4869,-2.4871,-2.4904,-2.4915,-2.4926,-2.4786,-2.4785,-2.4785,0,0,-2.4598,-2.4611,-2.4657,-2.4671,-2.4692,-2.4692,-2.4703,-2.4719,-2.4723,-2.4774,-2.4754,-2.4785,-2.4841,-2.4856,-2.4871,-2.4959,-2.4942,-2.4969,-2.5016,-2.5049,-2.5059,-2.5068,-2.5097,-2.5108,-2.4976,-2.4976,-2.4976,0,-2.464,-2.4692,-2.4683,-2.4723,-2.474,-2.4716,-2.4763,-2.4777,-2.4807,-2.4819,-2.4799,-2.4867,-2.488,-2.4943,-2.4964,-2.4978,-2.4989,-2.4966,-2.5059,-2.5067,-2.5075,-2.5103,-2.5114,-2.4979,-2.4979,-2.4979,-2.4978,0,-2.4742,-2.4779,-2.4814,-2.4841,-2.4863,-2.4906,-2.4903,-2.4926,-2.4917,-2.4919,-2.4971,-2.4985,-2.5017,-2.5032,-2.5024,-2.5093,-2.5081,-2.506,-2.5022,-2.509,-2.5116,-2.5127,-2.4984,-2.4983,-2.4982,-2.4981,0,0,-2.4856,-2.4876,-2.4889,-2.4901,-2.4921,-2.4949,-2.4991,-2.5021,-2.5039,-2.5061,-2.5095,-2.5142,-2.5122,-2.514,-2.5133,-2.5163,-2.5229,-2.5138,-2.5138,-2.5153,-2.5303,-2.5318,-2.533,-2.5218,-2.522,-2.5222,-2.5301,0,-2.4938,-2.501,-2.5002,-2.507,-2.5103,-2.508,-2.5116,-2.5132,-2.5135,-2.5163,-2.5167,-2.52,-2.5172,-2.5182,-2.521,-2.5215,-2.5259,-2.5209,-2.5248,-2.525,-2.5242,-2.5344,-2.536,-2.5434,-2.5311,-2.5313,-2.5314,0,-2.5044,-2.5067,-2.5138,-2.5152,-2.5165,-2.5198,-2.5223,-2.5251,-2.5269,-2.5268,-2.5287,-2.5275,-2.5316,-2.5279,-2.5335,-2.5302,-2.5318,-2.5322,-2.5325,-2.5327,-2.5285,-2.5348,-2.5458,-2.5469,-2.5331,-2.5329,-2.5328,0,-2.5117,-2.5167,-2.5215,-2.5225,-2.5243,-2.5266,-2.5274,-2.5289,-2.5307,-2.533,-2.5341,-2.537,-2.5385,-2.5407,-2.5402,-2.5376,-2.5459,-2.5422,-2.5459,-2.5459,-2.5477,-2.5475,-2.559,-2.549,-2.549,-2.549,-2.5489,0,-2.5209,-2.5253,-2.5247,-2.5277,-2.5325,-2.5316,-2.5364,-2.5369,-2.5383,-2.5412,-2.5395,-2.5424,-2.5417,-2.5445,-2.5443,-2.5488,-2.5496,-2.5496,-2.5495,-2.5497,-2.5497,-2.5506,-2.55,-2.5492,-2.5492,-2.5491,-2.5491,0,-2.5298,-2.5296,-2.5347,-2.5358,-2.5362,-2.5397,-2.5407,-2.5435,-2.5436,-2.5474,-2.5482,-2.5484,-2.5516,-2.5514,-2.5551,-2.5549,-2.5605,-2.5598,-2.5598,-2.5596,-2.5633,-2.5629,-2.5756,-2.5771,-2.5663,-2.5664,-2.5665,0,-2.5357,-2.5389,-2.5404,-2.5422,-2.5431,-2.5462,-2.5479,-2.5471,-2.549,-2.5512,-2.5537,-2.5567,-2.5591,-2.5643,-2.5648,-2.5675,-2.5668,-2.5711,-2.5672,-2.5672,-2.5666,-2.5664,-2.5666,-2.5718,-2.5719,-2.572,-2.5721,0,-2.5459,-2.5456,-2.5482,-2.5507,-2.5528,-2.5547,-2.5565,-2.5581,-2.5575,-2.5598,-2.563,-2.5648,-2.5684,-2.5714,-2.574,-2.5749,-2.5734,-2.5733,-2.5743,-2.5745,-2.5742,-2.5742,-2.5617,-2.573,-2.5729,-2.5728,-2.5728,-2.5727,-2.5533,-2.556,-2.5574,-2.5603,-2.5615,-2.5632,-2.5657,-2.5661,-2.5687,-2.5715,-2.571,-2.5745,-2.576,-2.5794,-2.5805,-2.5832,-2.5817,-2.5831,-2.5835,-2.5838,-2.5841,-2.5739,-2.5837,-2.5837,-2.5837,-2.5836,-2.5836,0,-2.5633,-2.5641,-2.5667,-2.5691,-2.5714,-2.5697,-2.5715,-2.5735,-2.5766,-2.5782,-2.5805,-2.584,-2.5869,-2.5875,-2.5903,-2.5923,-2.5917,-2.593,-2.5928,-2.593,-2.5854,-2.5842,-2.5935,-2.5935,-2.5935,-2.5935,-2.5935,-2.5935,-2.5688,-2.5732,-2.573,-2.578,-2.5787,-2.5821,-2.5833,-2.5848,-2.5859,-2.59,-2.5923,-2.5927,-2.5938,-2.5966,-2.5991,-2.5992,-2.6002,-2.6018,-2.6016,-2.5945,-2.5935,-2.5926,-2.5914,-2.6021,-2.6021,-2.6089,-2.609,-2.609]},{"header":{"parameterUnit":"m.s-1","parameterCategory":1,"la1":30.2991,"la2":30.254,"lo1":-89.0895,"lo2":-89.0444,"dy":0.0017,"dx":0.0017,"nx":28,"ny":28,"refTime":"2025-08-04T09:00:00:Z","depth":0,"parameterNumber":3,"parameterNumberName":"V-component_of_WINDS"},"data":[0,0,0,0,0,0,0,0,0,0,0,0,0,0,0,0,0,0,0,0,0,0,0,0,0,0,0,0,0,0,0,0,0,0,0,0,0,0,0,0,0,0,0,0,0,0,0,0,0,0,0,0,0,0,0,0,0,0,0.353,0.3529,0,0.3426,0.3425,0.3424,0.3324,0.3323,0.3322,0.332,0.3211,0.3209,0.3207,0,0,0,0,0,0,0,0,0,0,0,0,0,0.3638,0.3637,0.353,0.3529,0.3527,0.3427,0.3425,0.3424,0.3324,0.3323,0.3321,0.332,0.3211,0.3209,0.3207,0,0,0,0,0,0,0,0,0,0,0,0,0,0.3569,0.3636,0.353,0.3466,0.3459,0.3427,0.3425,0.3423,0.3325,0.3323,0.3321,0.3319,0.3212,0.3209,0.3207,0.3229,0,0,0.3199,0.3198,0,0,0,0,0,0,0,0,0.3573,0.3565,0.3476,0.347,0.3462,0.3386,0.3423,0.3358,0.3325,0.3376,0.332,0.3318,0.327,0.3263,0.3247,0.3224,0.3219,0.3199,0.3197,0.3196,0.3195,0,0,0,0,0,0,0,0.3578,0.3569,0.3489,0.3475,0.3467,0.3441,0.3429,0.341,0.3335,0.3371,0.3364,0.3353,0.3266,0.325,0.3244,0.3217,0.3199,0.3196,0.3195,0.3194,0.3208,0.321,0,0,0,0,0,0,0.3593,0.3573,0.3492,0.3486,0.3514,0.3441,0.3427,0.3413,0.3335,0.3321,0.3355,0.3349,0.3256,0.3247,0.324,0.3262,0.3196,0.3193,0.3192,0.3206,0.3208,0.321,0,0,0,0,0,0,0.3596,0.3587,0.3496,0.3528,0.3514,0.3441,0.3425,0.3412,0.3396,0.3322,0.3308,0.3353,0.3254,0.3244,0.3233,0.3256,0.3192,0.319,0.3204,0.3207,0.3209,0.3305,0,0,0,0,0,0,0.3599,0.3588,0.3596,0.3529,0.3513,0.3492,0.3427,0.3411,0.3392,0.3383,0.3317,0.3304,0.3252,0.3237,0.323,0.3252,0.3188,0.3201,0.3205,0.3208,0.3299,0.3311,0.332,0,0,0,0,0,0.3603,0.3626,0.3597,0.3588,0.3522,0.3494,0.3485,0.3425,0.3394,0.3402,0.3355,0.3306,0.3255,0.3237,0.3228,0.3249,0.3199,0.3204,0.3208,0.3295,0.3308,0.332,0,0,0,0,0,0,0.3697,0.3616,0.3583,0.3585,0.3547,0.3477,0.3484,0.3442,0.3411,0.3404,0.333,0.3316,0.3314,0.328,0.3262,0.3267,0.3221,0.3223,0.3289,0.3302,0.3312,0.332,0.3186,0,0,0,0,0,0.3718,0.3703,0.3633,0.3641,0.3624,0.3558,0.3543,0.3501,0.3459,0.3442,0.3394,0.3353,0.3328,0.3313,0.3286,0.3294,0.3278,0.3304,0.3315,0.3324,0.3327,0.333,0.3341,0.3225,0.3225,0.3225,0,0,0.3761,0.3715,0.371,0.3659,0.3625,0.361,0.3545,0.3532,0.352,0.3439,0.3427,0.3391,0.334,0.334,0.3337,0.3312,0.3356,0.3329,0.3337,0.3335,0.3335,0.3347,0.3356,0.3228,0.3227,0.3227,0,0,0.3832,0.3796,0.3799,0.3767,0.3717,0.3673,0.3674,0.3611,0.3584,0.3571,0.351,0.3495,0.3453,0.342,0.3398,0.3459,0.3413,0.3452,0.3507,0.3511,0.352,0.3527,0.355,0.3559,0.3455,0.3456,0.3456,0,0.3891,0.3868,0.3806,0.3798,0.3777,0.3705,0.3708,0.3679,0.3622,0.3609,0.3582,0.3529,0.349,0.3482,0.3497,0.3481,0.348,0.3459,0.3524,0.3531,0.3537,0.3557,0.3566,0.3461,0.346,0.346,0.3459,0,0.3944,0.3929,0.3938,0.3887,0.3867,0.3864,0.3802,0.3789,0.3749,0.3708,0.3696,0.3647,0.3609,0.3604,0.3564,0.359,0.3576,0.3538,0.3489,0.3554,0.3572,0.358,0.3468,0.3466,0.3465,0.3463,0,0,0.407,0.3986,0.3991,0.3967,0.3907,0.3894,0.3888,0.3853,0.3844,0.3807,0.38,0.3768,0.3732,0.3707,0.3663,0.3666,0.3719,0.3627,0.3624,0.3646,0.3745,0.3775,0.3785,0.3688,0.3689,0.369,0.375,0,0.4131,0.4117,0.4062,0.4065,0.405,0.3982,0.3977,0.394,0.3902,0.3883,0.384,0.3819,0.3773,0.3758,0.3758,0.3712,0.3738,0.3707,0.3681,0.368,0.3696,0.3794,0.3825,0.3883,0.3756,0.3757,0.3758,0,0.42,0.417,0.4172,0.4114,0.4106,0.4102,0.4066,0.405,0.4006,0.3978,0.3952,0.3903,0.3892,0.3848,0.3833,0.3814,0.3799,0.3776,0.3776,0.3771,0.3723,0.3792,0.39,0.391,0.3768,0.3768,0.3767,0,0.4293,0.4253,0.4249,0.4231,0.4163,0.4162,0.4133,0.4088,0.4071,0.4039,0.4027,0.3994,0.3976,0.3951,0.3895,0.3868,0.3887,0.3837,0.3863,0.3864,0.3869,0.387,0.3977,0.386,0.386,0.386,0.386,0,0.4367,0.437,0.429,0.4287,0.429,0.4226,0.423,0.4195,0.4156,0.4145,0.4083,0.4074,0.4,0.3983,0.3939,0.3933,0.3925,0.3902,0.389,0.3908,0.3911,0.3897,0.3892,0.3862,0.3862,0.3861,0.3861,0,0.447,0.4416,0.4408,0.4345,0.4329,0.4334,0.4279,0.4274,0.4233,0.4221,0.4214,0.4149,0.4126,0.4067,0.4028,0.3998,0.4004,0.3982,0.402,0.4012,0.4042,0.404,0.4144,0.4155,0.4032,0.4033,0.4034,0,0.4521,0.4522,0.4461,0.445,0.4424,0.4408,0.439,0.4328,0.4313,0.4264,0.4265,0.4237,0.4211,0.4177,0.4126,0.4095,0.4072,0.4111,0.4067,0.4085,0.4073,0.4074,0.4074,0.4121,0.4122,0.4124,0.4125,0,0.4617,0.4591,0.4569,0.4539,0.452,0.4493,0.4462,0.4456,0.4386,0.4372,0.4348,0.4329,0.429,0.4263,0.4225,0.4194,0.4148,0.4139,0.4144,0.4161,0.4183,0.4172,0.4046,0.4137,0.4136,0.4135,0.4134,0.4134,0.4695,0.4694,0.4651,0.4629,0.46,0.4573,0.4566,0.4525,0.4505,0.4469,0.4433,0.4413,0.437,0.4315,0.4288,0.4271,0.4247,0.4253,0.4255,0.4258,0.4266,0.4187,0.4264,0.4264,0.4263,0.4263,0.4262,0,0.4789,0.4758,0.4739,0.4699,0.4682,0.4642,0.4606,0.4594,0.4578,0.4542,0.4519,0.4492,0.4466,0.4414,0.4383,0.438,0.4358,0.4374,0.4373,0.4367,0.4289,0.4288,0.4392,0.4392,0.4392,0.4392,0.4392,0.4392,0.4836,0.4832,0.4801,0.4783,0.4751,0.4733,0.4716,0.4691,0.4662,0.4636,0.4614,0.4581,0.4539,0.4505,0.4479,0.4464,0.4456,0.4479,0.4458,0.4385,0.4373,0.4361,0.436,0.4478,0.4478,0.4537,0.4538,0.4539]}]]